This is the latest recevied weather packets stored in our database for station/object KB8SSH. If no packets are shown the sender has not sent any weather packets the latest 10 day(s).
| Time | Temp. | Humidity | Pressure | Rain* | Wind** | Luminosity | Snow |
|---|---|---|---|---|---|---|---|
| 1777920387 | 23.33° C | 52% | 1040.8 hPa | 0 mm | - | 755 W/m² | - |
| 1777920082 | 23.33° C | 52% | 1040.8 hPa | 0 mm | - | 731 W/m² | - |
| 1777919779 | 23.33° C | 52% | 1040.8 hPa | 0 mm | - | 718 W/m² | - |
| 1777919477 | 22.78° C | 53% | 1040.8 hPa | 0 mm | - | 656 W/m² | - |
| 1777919174 | 23.33° C | 52% | 1040.8 hPa | 0 mm | - | 668 W/m² | - |
| 1777918872 | 22.78° C | 53% | 1040.8 hPa | 0 mm | - | 448 W/m² | - |
| 1777918569 | 22.78° C | 53% | 1041.1 hPa | 0 mm | - | 313 W/m² | - |
| 1777918266 | 23.33° C | 53% | 1040.8 hPa | 0 mm | - | 745 W/m² | - |
| 1777917965 | 22.78° C | 51% | 1040.8 hPa | 0 mm | - | 601 W/m² | - |
| 1777917664 | 22.78° C | 52% | 1040.8 hPa | 0 mm | - | 630 W/m² | - |
| 1777917361 | 22.22° C | 53% | 1041.1 hPa | 0 mm | - | 390 W/m² | - |
| 1777917057 | 22.22° C | 53% | 1040.8 hPa | 0 mm | - | 335 W/m² | - |
| 1777916755 | 22.78° C | 52% | 1041.1 hPa | 0 mm | - | 334 W/m² | - |
| 1777916452 | 22.78° C | 53% | 1041.4 hPa | 0 mm | - | 724 W/m² | - |
| 1777916148 | 22.22° C | 54% | 1041.1 hPa | 0 mm | - | 638 W/m² | - |
| 1777915846 | 22.78° C | 53% | 1041.1 hPa | 0 mm | - | 623 W/m² | - |
| 1777915542 | 22.22° C | 56% | 1041.1 hPa | 0 mm | - | 613 W/m² | - |
| 1777915239 | 21.67° C | 56% | 1041.1 hPa | 0 mm | - | 611 W/m² | - |
| 1777914936 | 21.67° C | 55% | 1041.1 hPa | 0 mm | - | 624 W/m² | - |
| 1777914633 | 21.67° C | 56% | 1041.4 hPa | 0 mm | - | 642 W/m² | - |
| 1777914328 | 21.67° C | 56% | 1041.4 hPa | 0 mm | - | 656 W/m² | - |
| 1777914026 | 21.11° C | 58% | 1041.4 hPa | 0 mm | - | 663 W/m² | - |
| 1777913722 | 21.11° C | 58% | 1041.4 hPa | 0 mm | - | 670 W/m² | - |
| 1777913419 | 21.11° C | 57% | 1041.4 hPa | 0 mm | - | 662 W/m² | - |
| 1777913115 | 21.11° C | 58% | 1041.8 hPa | 0 mm | - | 640 W/m² | - |
* Rain latest hour (hover to see other rain measurements)
** Current wind speed in m/s (hover to see current wind gust speed)